TimeEDT,TemperatureF,Dew PointF,Humidity,Sea Level PressureIn,VisibilityMPH,Wind Direction,Wind SpeedMPH,Gust SpeedMPH,PrecipitationIn,Events,Conditions,WindDirDegrees,DateUTC
12:15 AM,36.5,22.6,57,29.79,10.0,West,9.2,17.3,N/A,,Overcast,270,2013-03-26 04:15:00
12:35 AM,36.5,22.6,57,29.80,10.0,WNW,8.1,-,N/A,,Overcast,290,2013-03-26 04:35:00
12:55 AM,36.3,22.1,56,29.80,10.0,West,9.2,17.3,N/A,,Overcast,280,2013-03-26 04:55:00
1:15 AM,36.9,21.9,55,29.81,10.0,WNW,8.1,18.4,N/A,,Overcast,300,2013-03-26 05:15:00
1:35 AM,36.9,21.7,54,29.81,10.0,West,8.1,-,N/A,,Overcast,280,2013-03-26 05:35:00
1:55 AM,36.9,22.1,55,29.81,10.0,WNW,9.2,17.3,N/A,,Overcast,290,2013-03-26 05:55:00
2:15 AM,36.5,22.5,57,29.81,10.0,NW,10.4,18.4,N/A,,Mostly Cloudy,310,2013-03-26 06:15:00
2:35 AM,36.1,22.8,58,29.81,10.0,WNW,8.1,-,N/A,,Mostly Cloudy,300,2013-03-26 06:35:00
2:55 AM,35.8,23.0,60,29.82,10.0,NW,9.2,-,N/A,,Mostly Cloudy,310,2013-03-26 06:55:00
3:15 AM,36.9,23.5,59,29.81,10.0,NW,10.4,18.4,N/A,,Overcast,310,2013-03-26 07:15:00
3:55 AM,37.4,23.5,57,29.82,10.0,WNW,12.7,25.3,N/A,,Overcast,300,2013-03-26 07:55:00
4:15 AM,37.0,23.5,58,29.82,10.0,WNW,9.2,16.1,N/A,,Overcast,300,2013-03-26 08:15:00
4:35 AM,36.9,23.5,59,29.82,10.0,WNW,9.2,17.3,N/A,,Overcast,300,2013-03-26 08:35:00
4:55 AM,36.5,23.5,59,29.82,10.0,NW,15.0,27.6,N/A,,Scattered Clouds,310,2013-03-26 08:55:00
5:15 AM,35.6,23.7,62,29.83,10.0,NW,11.5,20.7,N/A,,Clear,310,2013-03-26 09:15:00
5:35 AM,35.6,23.7,62,29.83,10.0,NW,10.4,19.6,N/A,,Clear,310,2013-03-26 09:35:00
5:55 AM,35.1,23.7,63,29.83,10.0,NW,11.5,18.4,N/A,,Clear,310,2013-03-26 09:55:00
6:15 AM,35.1,23.7,63,29.83,10.0,WNW,8.1,-,N/A,,Clear,300,2013-03-26 10:15:00
6:35 AM,35.1,23.9,64,29.84,10.0,WNW,8.1,17.3,N/A,,Clear,300,2013-03-26 10:35:00
6:55 AM,35.1,23.9,64,29.84,10.0,NW,9.2,17.3,N/A,,Clear,310,2013-03-26 10:55:00
7:15 AM,34.7,23.9,65,29.85,10.0,WNW,10.4,-,N/A,,Clear,300,2013-03-26 11:15:00
7:35 AM,34.3,23.9,66,29.85,10.0,NW,4.6,-,N/A,,Clear,310,2013-03-26 11:35:00
7:55 AM,35.4,24.8,65,29.86,10.0,WNW,5.8,-,N/A,,Scattered Clouds,300,2013-03-26 11:55:00
8:15 AM,37.6,25.5,62,29.87,10.0,WNW,4.6,-,N/A,,Mostly Cloudy,300,2013-03-26 12:15:00
8:35 AM,39.2,25.5,58,29.88,10.0,WNW,5.8,-,N/A,,Mostly Cloudy,290,2013-03-26 12:35:00
8:55 AM,39.9,24.4,54,29.89,10.0,WNW,6.9,-,N/A,,Mostly Cloudy,300,2013-03-26 12:55:00
9:15 AM,40.3,25.3,55,29.90,10.0,WNW,10.4,-,N/A,,Scattered Clouds,300,2013-03-26 13:15:00
9:35 AM,42.1,25.3,52,29.90,10.0,NW,6.9,16.1,N/A,,Clear,310,2013-03-26 13:35:00
9:55 AM,42.4,25.3,51,29.91,10.0,NW,9.2,16.1,N/A,,Clear,320,2013-03-26 13:55:00
10:15 AM,43.2,25.0,49,29.92,10.0,NW,11.5,18.4,N/A,,Scattered Clouds,310,2013-03-26 14:15:00
10:35 AM,42.8,24.8,49,29.93,10.0,NW,10.4,19.6,N/A,,Mostly Cloudy,320,2013-03-26 14:35:00
10:55 AM,42.6,24.1,48,29.94,10.0,NNW,15.0,20.7,N/A,,Mostly Cloudy,330,2013-03-26 14:55:00
11:15 AM,45.0,25.5,47,29.95,10.0,NNW,16.1,21.9,N/A,,Overcast,330,2013-03-26 15:15:00
11:35 AM,45.7,27.1,48,29.95,10.0,NW,11.5,20.7,N/A,,Mostly Cloudy,310,2013-03-26 15:35:00
11:55 AM,46.0,25.7,45,29.96,10.0,NW,18.4,25.3,N/A,,Mostly Cloudy,310,2013-03-26 15:55:00
12:15 PM,47.5,26.4,44,29.96,10.0,NW,16.1,20.7,N/A,,Overcast,310,2013-03-26 16:15:00
12:35 PM,46.8,24.3,41,29.96,10.0,NNW,9.2,23.0,N/A,,Overcast,330,2013-03-26 16:35:00
12:55 PM,46.8,25.0,43,29.96,10.0,WNW,10.4,19.6,N/A,,Overcast,300,2013-03-26 16:55:00
1:15 PM,46.0,25.2,44,29.96,10.0,WNW,8.1,16.1,N/A,,Mostly Cloudy,300,2013-03-26 17:15:00
1:35 PM,45.9,25.3,45,29.97,10.0,NW,11.5,18.4,N/A,,Overcast,310,2013-03-26 17:35:00
1:55 PM,46.6,24.6,42,29.97,10.0,NW,8.1,-,N/A,,Overcast,310,2013-03-26 17:55:00
2:15 PM,44.6,24.4,45,29.97,10.0,NNW,8.1,16.1,N/A,,Overcast,330,2013-03-26 18:15:00
2:35 PM,45.7,23.0,41,29.97,10.0,WNW,13.8,19.6,N/A,,Overcast,300,2013-03-26 18:35:00
2:55 PM,43.9,24.6,47,29.96,10.0,West,8.1,-,N/A,,Overcast,270,2013-03-26 18:55:00
3:15 PM,44.8,22.1,41,29.96,10.0,WNW,10.4,17.3,N/A,,Overcast,300,2013-03-26 19:15:00
3:35 PM,43.3,23.2,45,29.97,10.0,NW,12.7,16.1,N/A,,Overcast,310,2013-03-26 19:35:00
3:55 PM,43.3,23.5,46,29.97,10.0,WNW,5.8,-,N/A,,Overcast,290,2013-03-26 19:55:00
4:15 PM,43.7,23.2,44,29.97,10.0,WNW,8.1,-,N/A,,Overcast,300,2013-03-26 20:15:00
4:35 PM,43.7,23.5,45,29.98,10.0,NW,5.8,-,N/A,,Overcast,320,2013-03-26 20:35:00
4:55 PM,44.2,22.3,42,29.98,10.0,NW,9.2,-,N/A,,Overcast,310,2013-03-26 20:55:00
5:15 PM,44.4,24.4,45,29.99,10.0,WNW,13.8,19.6,N/A,,Overcast,300,2013-03-26 21:15:00
5:35 PM,43.0,25.7,51,30.00,10.0,WNW,11.5,21.9,N/A,,Overcast,300,2013-03-26 21:35:00
5:55 PM,42.8,24.3,48,30.01,10.0,WNW,9.2,18.4,N/A,,Overcast,300,2013-03-26 21:55:00
6:15 PM,43.0,24.6,48,30.01,10.0,NW,6.9,20.7,N/A,,Mostly Cloudy,310,2013-03-26 22:15:00
6:35 PM,42.8,23.9,47,30.02,10.0,NW,12.7,20.7,N/A,,Mostly Cloudy,310,2013-03-26 22:35:00
6:55 PM,43.0,24.6,48,30.04,10.0,NW,10.4,-,N/A,,Mostly Cloudy,310,2013-03-26 22:55:00
7:15 PM,40.3,24.6,54,30.05,10.0,West,4.6,-,N/A,,Scattered Clouds,280,2013-03-26 23:15:00
7:35 PM,39.4,24.6,56,30.05,10.0,NW,11.5,17.3,N/A,,Clear,310,2013-03-26 23:35:00
7:55 PM,38.3,25.3,60,30.06,10.0,NW,9.2,-,N/A,,Clear,310,2013-03-26 23:55:00
8:15 PM,37.4,25.5,62,30.07,10.0,NW,4.6,-,N/A,,Clear,310,2013-03-27 00:15:00
8:35 PM,36.9,25.3,63,30.08,10.0,NW,5.8,-,N/A,,Scattered Clouds,310,2013-03-27 00:35:00
8:55 PM,36.3,24.8,63,30.08,10.0,NW,3.5,-,N/A,,Scattered Clouds,310,2013-03-27 00:55:00
9:15 PM,35.6,24.1,63,30.09,10.0,Calm,Calm,-,N/A,,Clear,0,2013-03-27 01:15:00
9:35 PM,36.3,24.8,63,30.09,10.0,NW,3.5,-,N/A,,Mostly Cloudy,320,2013-03-27 01:35:00
9:55 PM,37.0,24.4,60,30.10,10.0,NW,5.8,-,N/A,,Mostly Cloudy,310,2013-03-27 01:55:00
10:15 PM,37.4,24.4,60,30.10,10.0,WNW,5.8,-,N/A,,Mostly Cloudy,290,2013-03-27 02:15:00
10:35 PM,38.1,25.3,60,30.11,10.0,WNW,9.2,16.1,N/A,,Overcast,300,2013-03-27 02:35:00
10:55 PM,37.8,25.2,60,30.11,10.0,WNW,3.5,-,N/A,,Mostly Cloudy,290,2013-03-27 02:55:00
11:15 PM,36.9,24.8,62,30.12,10.0,WNW,3.5,-,N/A,,Scattered Clouds,290,2013-03-27 03:15:00
11:35 PM,37.2,25.2,62,30.12,10.0,Calm,Calm,-,N/A,,Overcast,0,2013-03-27 03:35:00
11:55 PM,36.9,25.3,63,30.12,10.0,NW,5.8,-,N/A,,Overcast,310,2013-03-27 03:55:00